Gore Bay Manitoulin Airport
CYZE : now visible

Airfield :











YOU CAN JOIN US ON...

 
LOGIN :

Register | Disclaimer

   EN    FR    IT 

 









Legend :    VFR   Marginal VFR   IFR   Intensive IFR   Very Intensive IFR
Visi :
Ceiling :
>= 8 km
>= 3000ft
5 to 8 km
1000 to 3000 ft
1500m to 5 km
500 to 1000 ft
800 to 1500m
200 to 500 ft
< 800m
< 200 ft
Symbols :   Thunderstorms  Fog  Heavy snow  Heavy precipitations  Wind > 20 kt






- Airport Elevation : 635 ft
- IATA code : YZE


CYZE - Gore Bay Manitoulin

CURRENT METAR :
  • 070200Z AUTO 05014KT 9SM BKN009 OVC013 M02/M04 A3009 RMK SLP203

EXPIRED METARs :
  • 070146Z AUTO 07009G16KT 9SM BKN009 OVC015 M02/M04 A3009 RMK SLP204
  • 070137Z AUTO 06011G17KT 9SM FEW009 BKN015 OVC031 M02/M04 A3009 RMK SLP204
  • 070126Z AUTO 07011G18KT 9SM SCT015 BKN024 OVC031 M03/M04 A3009 RMK SLP204
  • 070112Z AUTO 08008G15KT 9SM FEW024 OVC033 M02/M04 A3009 RMK SLP203
  • 070023Z AUTO 04014G19KT 9SM BKN010 OVC035 M02/M04 A3012 RMK SLP211
  • 070000Z AUTO 06015KT 9SM FEW026 OVC035 M02/M05 A3011 RMK SLP209
  • 062341Z AUTO 06015KT 9SM SCT011 OVC033 M02/M05 A3012 RMK SLP214

Expired Forecast.
CZYZ FIR / North America



MET'MAP, your aeronautical weather chart ! - Copyright ORBIFLY December 2007 - Disclaimer

ORBIFLY MET'MAP TEAM :

Programming & Development : Alexandra Zaïnal
Original concept : Baudouin d'Aumeries
Technical & hardware support : Manuel Goepfert
Assistance : Marc-Olivier Méhu




SOURCES & CREDITS :

   NOAA       Earth
Advisory